Temperature
11 11 11 11 11 11 11 11 11 11 10 10 10 10 10 10 10 10 10 10 9 9 9 9 8 8 8 8 8 8 7 7 7 7 7 7 6 6 6 6 6 6 6
11 11 11 11 11 11 10 10 10 10 10 10 10 10 10 10 10 10 10 10 9 9 9 9 8 8 8 8 8 8 7 7 7 7 7 6 6 6 6 6 6 5 5
11 11 11 11 10 10 10 10 10 10 10 10 10 10 10 10 10 10 10 10 9 9 9 9 9 8 8 7 7 7 7 7 7 7 6 6 6 6 5 5 5 5 5
11 11 11 11 10 10 10 10 10 10 10 9 9 9 9 9 9 9 9 9 9 9 9 9 9 8 8 8 7 7 7 7 6 6 6 6 6 5 5 5 5 5 5
11 11 11 11 10 10 10 10 10 10 9 9 9 9 9 9 9 9 9 9 9 9 9 9 9 8 8 8 7 7 7 6 6 6 6 6 5 5 5 5 5 4 4
11 11 11 10 10 10 10 10 9 9 9 9 9 9 9 9 9 9 9 9 9 9 9 9 8 8 8 8 7 7 7 6 6 6 6 5 5 5 4 4 4 4 4
11 11 11 10 10 10 10 9 9 9 9 9 9 9 9 9 9 9 9 9 9 9 9 8 8 8 8 8 7 7 7 6 6 5 5 5 4 4 4 4 4 4 3
11 11 11 11 10 10 10 9 9 9 9 9 8 8 9 9 9 9 9 9 9 9 9 8 8 8 8 7 7 7 6 6 6 5 5 4 4 4 4 3 3 3 3
12 11 11 11 10 10 10 10 9 9 9 9 8 8 9 9 9 9 9 9 9 9 9 8 8 8 8 7 7 7 6 6 5 5 4 4 4 3 3 3 3 3 3
12 11 11 11 10 10 10 10 10 9 9 9 9 8 8 9 9 9 9 9 9 9 8 8 8 8 7 7 7 6 6 5 5 4 4 3 3 3 2 2 2 2 2
12 12 11 11 11 10 10 10 10 9 9 9 9 8 8 8 8 8 9 9 9 9 8 8 8 7 7 7 6 6 5 5 4 4 4 3 3 2 2 1 1 1 1
12 12 12 11 11 11 10 10 10 9 9 9 9 9 8 8 8 8 8 8 8 8 8 8 7 7 7 6 6 5 5 5 4 4 3 3 2 2 1 1 0 0 0
13 13 12 12 11 11 11 10 10 9 9 9 9 9 8 8 8 8 8 8 7 8 8 7 7 7 6 6 5 5 4 4 3 3 3 2 1 1 1 0 -0 -0 -1
14 14 13 12 12 11 11 10 10 9 9 9 9 9 8 8 8 8 7 7 7 7 7 7 6 6 6 5 5 4 4 3 3 2 2 1 1 0 -0 -1 -1 -1 -1
14 14 13 13 12 11 11 10 10 10 9 9 9 9 8 8 8 8 7 7 6 6 6 6 6 5 5 4 4 4 3 3 2 2 1 0 -0 -1 -1 -1 -2 -2 -2
14 13 13 12 12 11 11 10 10 10 9 9 9 9 8 8 8 7 7 7 6 6 5 5 5 5 4 4 3 3 3 2 2 1 0 -0 -1 -1 -2 -2 -2 -3 -3
14 13 13 12 12 11 11 10 10 10 10 9 9 9 8 8 8 7 7 7 6 6 5 5 5 4 4 3 3 2 2 2 1 0 -0 -1 -2 -2 -3 -3 -3 -3 -3
13 13 13 12 12 11 11 11 10 10 10 9 9 9 8 8 7 7 7 6 6 6 5 5 4 4 3 3 2 2 1 1 0 -0 -1 -1 -2 -3 -3 -3 -3 -4 -4
13 12 12 12 11 11 11 11 10 10 10 9 9 8 8 8 7 7 7 6 6 5 5 4 4 3 3 2 2 2 1 0 -0 -1 -1 -2 -2 -3 -3 -3 -4 -4 -4
12 12 12 12 11 11 11 10 10 10 9 9 9 8 8 8 7 7 7 6 6 5 4 4 3 3 2 2 1 1 1 -0 -1 -1 -2 -3 -3 -3 -3 -4 -4 -5 -5
12 12 11 11 11 11 10 10 10 9 9 9 8 8 8 7 7 7 6 6 5 5 4 3 3 2 2 1 1 -0 -1 -1 -1 -2 -2 -3 -3 -4 -4 -4 -5 -5 -6
12 11 11 11 10 10 10 10 10 9 9 8 8 8 7 7 7 6 6 5 5 4 3 3 2 2 1 0 -0 -1 -2 -2 -3 -3 -3 -3 -4 -4 -4 -5 -5 -6 -7
11 11 11 10 10 10 10 10 9 9 9 8 8 8 7 7 6 6 5 5 4 3 3 2 2 1 -0 -1 -1 -2 -2 -3 -3 -4 -4 -3 -4 -4 -5 -5 -6 -7 -7
11 11 10 10 10 10 10 9 9 9 8 8 8 7 7 6 6 5 5 4 4 3 2 2 1 0 -0 -1 -2 -2 -3 -3 -3 -4 -5 -5 -5 -5 -5 -5 -6 -7 -7
10 10 10 10 10 10 9 9 9 8 8 8 7 7 6 6 5 5 4 4 3 3 2 1 0 -0 -1 -2 -2 -3 -3 -3 -4 -4 -5 -6 -6 -6 -5 -5 -6 -7 -8
11 10 10 10 10 9 9 9 8 8 8 7 7 6 6 5 5 4 4 3 3 2 1 1 -0 -1 -1 -2 -3 -3 -4 -5 -5 -6 -6 -7 -7 -7 -7 -6 -6 -7 -8
Wind_Speed
7 6 6 7 8 8 7 6 6 6 5 5 5 5 4 3 3 2 2 3 4 3 3 3 3 3 4 4 5 6 6 7 8 9 10 10 11 11 12 13 13 14 14
9 7 6 6 6 7 7 7 6 5 4 4 3 3 3 3 2 1 1 2 3 3 2 2 3 3 3 4 4 5 6 7 8 9 10 10 11 12 12 13 13 14 15
13 9 6 5 6 8 8 7 6 5 3 3 2 2 2 2 1 1 1 1 2 3 3 3 3 3 4 4 5 6 6 8 9 9 10 11 12 13 13 14 14 15 15
15 11 7 6 8 9 7 5 4 3 2 2 2 0 1 1 1 1 1 1 1 2 3 4 4 4 5 6 6 7 8 8 9 10 11 12 12 13 14 15 15 16 17
16 12 8 7 10 7 5 5 3 3 3 2 1 0 0 0 1 1 1 2 1 1 2 3 5 5 6 7 7 8 9 10 11 12 12 13 14 14 15 16 17 17 18
16 13 8 9 10 6 5 4 4 3 3 3 2 1 1 1 1 1 2 1 2 2 2 3 4 5 6 7 8 9 10 11 12 13 13 14 15 16 17 18 19 19 20
16 13 8 8 8 7 7 7 4 4 2 2 2 2 2 1 1 1 1 1 2 2 2 3 3 4 6 7 8 10 11 12 13 14 14 15 16 17 18 19 20 20 21
16 14 10 9 8 7 7 7 5 4 2 3 3 2 2 4 2 1 1 1 2 2 2 3 3 4 5 6 8 9 11 12 14 15 15 16 17 18 19 20 21 21 22
16 14 13 10 10 9 9 8 8 7 4 2 2 3 2 3 3 2 1 1 2 1 2 3 4 4 5 6 7 9 10 12 14 15 17 18 19 19 20 21 21 22 23
15 16 14 13 11 9 9 9 8 6 6 4 2 1 2 3 2 2 3 2 2 2 2 2 3 4 4 5 6 8 10 12 13 15 16 18 19 20 21 22 22 22 23
14 15 15 13 12 10 10 10 8 7 6 5 4 3 2 1 2 2 3 4 3 2 2 2 2 3 4 5 6 8 10 12 13 15 16 18 19 20 21 22 22 22 22
11 14 14 13 12 10 11 10 10 10 7 6 5 4 4 3 3 3 4 4 3 3 1 1 1 2 3 5 6 8 10 11 13 14 15 17 18 19 20 21 21 22 22
11 15 14 13 12 11 11 10 10 9 9 8 7 5 4 4 3 4 3 3 3 2 2 1 1 2 3 4 6 8 9 11 12 13 14 15 16 18 19 20 20 21 22
13 14 15 14 13 12 11 10 9 9 8 8 8 7 4 4 4 4 4 3 2 2 2 2 1 1 3 4 5 7 7 10 11 13 13 14 15 17 18 19 19 20 20
11 13 14 14 13 13 12 11 9 9 9 8 8 7 5 4 4 3 3 3 3 3 3 2 1 1 3 4 6 6 7 10 12 12 13 14 15 17 17 18 18 19 20
13 14 14 14 13 13 12 12 9 9 9 8 7 7 6 4 4 3 3 3 3 4 4 2 2 1 2 4 6 7 7 10 11 12 13 14 15 16 17 18 18 19 19
14 15 15 15 14 14 13 12 11 11 11 9 8 8 8 6 5 4 3 3 3 3 4 2 1 1 1 2 5 7 7 8 10 11 13 14 15 15 17 17 18 18 18
15 15 15 15 14 14 13 13 13 12 12 11 10 9 8 6 6 4 4 4 3 3 3 3 2 1 1 2 3 4 6 8 9 10 13 14 14 16 16 16 17 18 18
14 14 14 15 14 14 14 13 13 12 11 11 10 10 9 8 7 5 5 4 3 3 2 2 2 0 1 2 3 4 5 5 8 9 11 12 14 15 15 16 17 17 17
15 15 15 14 14 13 13 12 12 11 10 9 9 9 9 9 8 8 6 5 4 3 2 2 1 0 1 2 2 3 5 5 5 6 10 11 13 15 15 16 16 16 17
14 14 14 13 12 12 12 13 12 12 11 9 8 7 7 8 9 7 6 6 5 4 3 2 1 0 1 2 2 2 3 5 5 3 6 7 8 8 11 14 15 16 17
13 14 14 14 13 11 16 19 15 12 11 11 9 7 7 7 9 9 9 8 7 5 4 3 2 1 2 1 1 2 2 4 4 3 4 6 4 5 8 10 14 16 17
13 14 14 14 13 14 19 20 18 12 11 10 10 9 7 7 9 7 8 8 6 5 5 5 3 2 1 1 0 1 2 2 3 4 4 4 3 5 8 11 15 15 17
12 13 13 13 12 13 19 20 19 12 10 9 10 10 10 9 8 9 8 7 5 4 4 4 3 2 1 1 1 0 1 3 3 3 2 3 4 6 8 10 12 15 17
11 11 12 13 13 13 19 20 18 10 9 9 8 9 10 9 13 14 10 8 6 4 6 7 6 5 5 4 4 3 3 3 3 3 2 3 4 7 5 4 9 15 18
11 11 11 12 13 13 19 21 19 10 10 9 7 8 11 11 14 14 9 8 7 4 4 5 5 5 6 6 6 3 1 1 2 3 2 3 3 5 5 4 5 11 13
Wind_Direction
149 147 142 138 134 130 125 118 114 111 105 105 115 121 119 113 107 87 54 46 40 40 56 56 51 48 38 30 25 20 12 7 4 1 358 356 353 351 348 346 346 344 342
158 155 150 147 145 144 141 136 131 122 113 115 113 125 130 130 123 100 55 38 26 13 11 23 21 15 7 4 2 358 355 351 350 349 346 344 342 340 338 337 336 335 334
165 162 157 158 159 153 143 131 120 114 110 110 109 117 130 147 154 139 59 27 8 3 360 349 342 341 340 341 342 341 340 338 337 336 335 335 334 332 330 329 328 326 325
170 165 164 169 164 154 145 135 127 117 117 123 129 117 107 158 216 241 259 289 330 341 343 343 334 328 328 326 327 328 328 327 327 327 327 327 327 326 324 323 323 321 319
175 171 174 174 163 152 149 149 132 135 145 145 143 107 334 297 267 268 261 265 268 290 315 322 330 328 324 321 321 321 321 320 321 322 322 322 322 321 320 319 318 317 317
179 175 175 170 162 152 155 151 140 125 137 143 109 40 332 303 296 273 261 266 268 279 300 313 322 320 321 320 319 319 318 317 317 318 317 317 317 317 317 316 316 316 315
180 178 175 168 167 169 169 157 141 136 128 124 89 14 341 324 278 269 258 256 271 275 286 292 301 307 308 317 318 317 318 318 317 317 317 316 315 315 314 313 313 313 313
183 185 177 176 173 168 165 165 151 141 137 145 128 100 338 331 318 284 275 251 264 276 282 285 290 294 300 306 313 320 320 319 319 318 319 318 316 314 313 313 313 313 313
186 186 183 178 176 176 179 178 169 159 161 174 158 149 160 243 298 314 291 275 271 272 279 278 279 288 294 299 305 313 319 319 319 318 319 318 316 315 314 315 315 316 316
188 188 184 181 180 181 180 182 177 167 156 171 177 158 162 164 178 309 315 301 278 263 266 268 277 291 301 303 307 313 319 320 320 320 320 320 319 317 317 317 317 317 318
189 189 186 184 184 185 183 179 175 176 173 169 169 160 153 128 163 187 276 305 316 281 260 266 281 296 307 310 307 314 321 320 319 320 321 321 320 319 319 319 319 320 321
191 191 188 188 187 187 185 183 180 181 183 175 172 167 165 169 187 185 227 263 283 290 299 302 294 299 312 315 313 325 324 322 322 324 324 323 322 322 322 322 322 322 322
194 194 191 190 189 187 183 178 179 184 183 181 182 185 184 187 167 170 189 236 261 284 304 298 302 315 323 323 319 330 327 324 326 327 327 327 326 326 325 324 324 324 324
195 188 189 190 187 183 182 179 180 185 184 188 189 185 186 195 181 176 176 180 249 292 291 275 328 358 333 332 331 339 331 330 331 328 329 330 329 329 327 326 325 324 325
185 182 186 187 185 182 180 178 185 185 183 190 190 188 190 192 183 185 175 172 184 249 275 269 292 343 348 347 346 348 333 333 334 331 331 332 333 332 330 330 328 326 325
180 180 183 184 182 182 180 180 182 183 182 187 184 184 190 186 177 174 176 175 182 196 242 257 240 295 356 354 353 348 335 339 335 332 332 333 333 333 333 332 329 327 327
181 182 183 182 183 183 182 183 185 181 184 184 181 184 190 180 177 178 170 170 182 182 225 260 245 329 358 348 346 347 342 338 334 332 334 334 334 335 335 333 333 333 331
184 182 179 180 183 183 183 184 185 183 185 185 184 182 187 177 179 173 171 178 186 186 196 237 252 280 312 336 335 336 342 339 330 331 338 338 339 339 338 336 335 334 333
180 178 177 181 183 183 183 185 184 183 185 186 182 183 183 174 182 175 170 174 179 168 173 194 230 248 321 348 341 335 334 332 335 335 341 340 339 341 341 339 338 339 340
179 179 180 181 181 180 180 179 178 178 179 179 178 179 177 179 183 176 172 173 161 151 148 159 197 283 303 337 338 331 333 335 328 332 340 337 339 345 344 342 341 340 340
179 177 176 177 176 176 178 175 174 173 171 168 165 167 170 169 169 165 162 165 157 152 145 146 156 21 302 335 328 320 319 326 318 332 332 325 326 333 338 339 338 338 339
174 172 175 176 177 179 174 171 169 170 168 166 161 155 151 150 152 151 151 152 152 151 160 155 168 221 264 281 293 328 324 339 319 333 332 314 324 324 329 330 332 338 340
172 173 175 175 177 177 170 170 167 164 163 163 159 155 150 149 143 137 134 127 125 123 136 149 160 198 229 240 259 319 314 309 287 305 329 303 317 319 323 327 332 340 343
172 173 173 173 171 172 168 166 159 153 151 154 156 157 153 151 150 139 127 117 106 97 108 111 137 156 154 152 137 344 277 307 291 299 340 303 313 315 318 319 328 341 343
167 168 169 167 167 166 163 158 150 148 144 144 146 150 150 151 151 141 134 128 115 95 91 99 97 91 80 72 68 59 21 7 334 317 354 324 312 318 308 300 319 333 338
161 158 160 164 163 161 160 156 148 147 144 141 138 144 150 150 151 147 142 141 138 134 115 94 77 66 55 51 48 56 70 18 332 306 325 334 316 332 321 301 306 318 325
Height
1517 1520 1523 1525 1528 1530 1533 1535 1537 1539 1540 1542 1543 1544 1545 1545 1546 1546 1547 1547 1547 1547 1547 1546 1546 1545 1545 1544 1543 1541 1540 1539 1537 1535 1533 1532 1530 1528 1526 1524 1522 1519 1517
1516 1519 1522 1525 1527 1530 1532 1535 1537 1538 1540 1541 1543 1544 1545 1545 1546 1546 1546 1546 1546 1546 1546 1546 1545 1545 1544 1543 1542 1541 1539 1538 1536 1534 1532 1530 1529 1526 1524 1522 1520 1518 1515
1515 1518 1521 1524 1527 1529 1532 1534 1536 1538 1540 1541 1542 1543 1544 1545 1545 1545 1546 1545 1545 1545 1545 1545 1544 1544 1543 1542 1541 1540 1538 1537 1535 1533 1531 1529 1527 1525 1523 1520 1518 1515 1513
1514 1517 1520 1523 1526 1528 1531 1533 1535 1537 1539 1540 1542 1543 1543 1544 1544 1545 1545 1545 1545 1544 1544 1544 1543 1543 1542 1541 1540 1538 1537 1535 1534 1532 1530 1527 1525 1523 1520 1518 1515 1513 1510
1512 1515 1518 1522 1524 1527 1530 1532 1534 1536 1538 1539 1541 1542 1542 1543 1543 1543 1543 1543 1543 1543 1543 1543 1542 1541 1540 1539 1538 1536 1535 1533 1531 1530 1527 1525 1523 1520 1518 1515 1512 1510 1507
1510 1513 1516 1520 1522 1525 1528 1530 1533 1535 1537 1538 1539 1540 1541 1541 1541 1541 1542 1542 1542 1542 1541 1541 1540 1540 1539 1537 1536 1534 1532 1531 1529 1527 1524 1522 1519 1517 1514 1512 1509 1506 1503
1507 1510 1514 1517 1520 1523 1525 1528 1531 1533 1535 1536 1538 1539 1539 1539 1539 1540 1540 1540 1540 1540 1539 1539 1538 1537 1536 1535 1533 1532 1530 1528 1526 1524 1521 1519 1516 1513 1511 1508 1505 1502 1498
1503 1507 1511 1514 1517 1520 1523 1526 1528 1530 1533 1535 1536 1537 1537 1538 1537 1538 1538 1538 1538 1538 1537 1537 1536 1535 1533 1532 1530 1529 1526 1524 1522 1520 1518 1515 1512 1510 1507 1504 1500 1497 1494
1499 1503 1507 1511 1514 1517 1520 1523 1525 1528 1530 1532 1534 1536 1536 1535 1535 1536 1535 1536 1536 1535 1535 1534 1533 1532 1530 1529 1527 1525 1523 1521 1518 1516 1513 1511 1508 1505 1502 1499 1496 1492 1489
1495 1500 1504 1507 1511 1514 1517 1520 1523 1525 1527 1529 1531 1533 1534 1534 1534 1533 1534 1534 1533 1533 1532 1531 1530 1529 1527 1525 1524 1522 1519 1517 1514 1511 1509 1506 1503 1500 1497 1494 1490 1487 1483
1491 1495 1499 1503 1507 1510 1513 1517 1519 1522 1524 1526 1528 1529 1531 1532 1532 1532 1531 1531 1531 1530 1529 1528 1527 1525 1524 1522 1520 1518 1515 1512 1510 1507 1504 1501 1498 1495 1492 1488 1485 1481 1478
1485 1490 1494 1498 1502 1506 1509 1513 1516 1519 1521 1523 1525 1526 1528 1529 1529 1529 1529 1528 1527 1527 1526 1525 1523 1522 1520 1518 1516 1514 1511 1508 1505 1502 1499 1495 1492 1489 1486 1483 1479 1476 1472
1479 1483 1488 1492 1497 1501 1505 1509 1512 1514 1517 1519 1521 1523 1524 1525 1526 1527 1526 1525 1524 1523 1522 1521 1520 1518 1516 1514 1512 1509 1507 1504 1500 1497 1494 1490 1487 1484 1480 1477 1474 1470 1467
1473 1478 1483 1487 1492 1496 1500 1504 1507 1510 1513 1515 1517 1519 1520 1521 1522 1523 1523 1523 1521 1520 1519 1518 1516 1514 1512 1510 1508 1505 1502 1499 1496 1493 1489 1486 1482 1479 1475 1472 1468 1465 1461
1468 1473 1478 1482 1487 1491 1495 1499 1502 1505 1508 1510 1513 1515 1516 1517 1518 1519 1519 1519 1519 1517 1515 1514 1512 1510 1508 1506 1503 1501 1498 1495 1492 1488 1485 1481 1478 1474 1470 1466 1463 1460 1456
1462 1467 1472 1477 1481 1485 1489 1493 1496 1500 1503 1505 1508 1510 1511 1513 1514 1514 1515 1515 1514 1514 1511 1510 1508 1507 1505 1502 1500 1497 1494 1491 1487 1484 1480 1477 1473 1469 1465 1462 1458 1455 1451
1456 1461 1466 1471 1475 1479 1483 1487 1491 1494 1497 1500 1502 1504 1506 1508 1509 1510 1510 1510 1510 1509 1507 1506 1505 1503 1501 1499 1496 1493 1490 1486 1483 1480 1476 1472 1468 1464 1461 1457 1454 1450 1447
1449 1455 1460 1464 1469 1473 1477 1481 1485 1488 1492 1494 1497 1499 1501 1503 1504 1505 1505 1505 1505 1504 1503 1502 1500 1499 1497 1494 1492 1489 1486 1483 1479 1475 1472 1468 1464 1460 1456 1453 1449 1446 1442
1443 1449 1454 1458 1463 1467 1472 1476 1480 1483 1486 1489 1492 1494 1496 1498 1499 1500 1500 1501 1500 1500 1499 1498 1496 1495 1493 1491 1488 1486 1483 1479 1475 1472 1468 1464 1460 1456 1452 1448 1445 1442 1438
1437 1442 1448 1453 1457 1462 1466 1471 1474 1478 1481 1484 1487 1489 1491 1493 1494 1495 1496 1496 1496 1495 1495 1494 1492 1490 1489 1487 1484 1481 1478 1475 1472 1468 1465 1461 1457 1453 1449 1445 1441 1438 1435
1431 1437 1442 1447 1452 1457 1461 1465 1469 1473 1476 1479 1482 1484 1486 1488 1490 1491 1491 1491 1491 1491 1490 1489 1488 1487 1485 1483 1480 1477 1474 1471 1468 1465 1461 1458 1454 1449 1445 1441 1438 1435 1431
1425 1431 1436 1442 1447 1451 1456 1460 1464 1468 1471 1474 1477 1480 1482 1484 1485 1486 1487 1487 1488 1487 1486 1486 1484 1483 1481 1479 1477 1474 1471 1467 1463 1461 1458 1454 1451 1446 1442 1438 1435 1432 1428
1420 1425 1431 1437 1441 1446 1451 1455 1460 1463 1467 1470 1472 1475 1477 1479 1481 1482 1483 1483 1483 1483 1483 1483 1481 1480 1478 1476 1474 1471 1468 1465 1462 1458 1454 1450 1447 1443 1440 1436 1432 1429 1425
1414 1420 1426 1431 1437 1442 1446 1451 1455 1459 1462 1465 1468 1471 1473 1475 1477 1478 1479 1479 1480 1480 1479 1479 1478 1477 1475 1473 1471 1469 1466 1463 1460 1456 1452 1448 1444 1440 1437 1434 1430 1426 1422
1409 1415 1421 1427 1432 1437 1442 1446 1451 1455 1458 1461 1464 1467 1469 1471 1473 1474 1475 1476 1476 1476 1476 1476 1475 1474 1472 1471 1469 1466 1463 1460 1456 1453 1450 1446 1441 1436 1433 1431 1428 1424 1420
1405 1411 1417 1422 1428 1433 1438 1442 1447 1450 1454 1457 1460 1463 1465 1467 1469 1470 1472 1472 1473 1473 1473 1473 1473 1472 1470 1468 1466 1464 1461 1457 1454 1451 1448 1445 1440 1436 1430 1427 1425 1422 1417